Home   Weather   Milwaukee   Past weeks
Flag for USA

Past Weather in Milwaukee, Wisconsin, USA — Yesterday and Last 2 Weeks

Now
43 °F

Overcast.


Feels Like: 37 °F
Forecast: 45 / 34 °F
Wind: 10 mph from Southwest

Location: Milwaukee / Timmerman

Current Time: Mar 20, 2019 at 10:43:16 am

Latest Report: Mar 20, 2019 at 10:00 am


Visibility: 10 mi

Pressure: 30.02 "Hg

Humidity: 61%

Dew Point: 30 °F

Location of MilwaukeeLocation

Past Weather in Milwaukee — Graph

°F

Milwaukee Temperature Yesterday

Maximum temperature yesterday: 48 °F (at 2:45 pm)
Minimum temperature yesterday: 27 °F (at 12:35 am)
Average temperature yesterday: 34 °F

High & Low Weather Summary for the Past Weeks

 TemperatureHumidityPressure
High57 °F (Mar 14, 11:45 am)93% (Mar 8, 11:15 pm)30.41 "Hg (Mar 8, 11:15 pm)
Low3 °F (Mar 6, 6:15 am)27% (Mar 19, 12:45 pm)29.26 "Hg (Mar 14, 2:45 pm)
Average29 °F69%30.11 "Hg
* Reported Mar 5 7:15 am — Mar 20 8:45 am, Milwaukee. Weather by CustomWeather, © 2019

Note: Actual official high and low records may vary slightly from our data, if they occured in-between our weather recording intervals... More about our weather records

Advertising

Milwaukee Weather History for the Previous 24 Hours

Scroll right to see more
 ConditionsComfort  
Time TempWeatherWind HumidityBarometerVisibility
8:45 am
Wed, Mar 20
37 °FSunny.8 mph75%30.03 "Hg10 mi
7:45 am37 °FSunny.7 mph70%30.04 "Hg10 mi
7:15 am36 °FSunny.9 mph75%30.05 "Hg10 mi
6:55 am36 °FSunny.9 mph75%30.06 "Hg10 mi
6:35 am34 °FClear.9 mph81%30.06 "Hg10 mi
6:15 am34 °FClear.8 mph81%30.07 "Hg10 mi
5:55 am34 °FClear.8 mph75%30.07 "Hg10 mi
5:35 am34 °FClear.7 mph75%30.08 "Hg10 mi
5:15 am32 °FClear.6 mph75%30.08 "Hg10 mi
4:55 am30 °FClear.No wind75%30.08 "Hg10 mi
4:35 am32 °FClear.3 mph75%30.09 "Hg10 mi
4:15 am34 °FClear.5 mph70%30.10 "Hg10 mi
3:55 am34 °FClear.6 mph75%30.11 "Hg10 mi
3:35 am34 °FClear.6 mph75%30.11 "Hg10 mi
3:15 am34 °FClear.6 mph70%30.12 "Hg10 mi
2:55 am32 °FClear.5 mph75%30.13 "Hg10 mi
2:35 am34 °FClear.5 mph70%30.14 "Hg10 mi
2:15 am36 °FClear.5 mph70%30.15 "Hg10 mi
1:55 am34 °FClear.No wind70%30.16 "Hg10 mi
1:35 am34 °FClear.No wind70%30.17 "Hg10 mi
12:55 am34 °FClear.3 mph70%30.18 "Hg10 mi
12:35 am34 °FClear.3 mph70%30.19 "Hg10 mi
12:15 am32 °FClear.No wind69%30.19 "Hg10 mi
11:55 pm
Tue, Mar 19
36 °FClear.5 mph65%30.20 "Hg10 mi
11:35 pm34 °FClear.6 mph70%30.20 "Hg10 mi
11:15 pm36 °FClear.3 mph60%30.21 "Hg10 mi
10:55 pm36 °FClear.5 mph60%30.21 "Hg10 mi
10:35 pm36 °FClear.6 mph60%30.21 "Hg10 mi
10:15 pm36 °FClear.6 mph60%30.22 "Hg10 mi
9:55 pm37 °FClear.3 mph56%30.22 "Hg10 mi
9:35 pm37 °FClear.6 mph56%30.23 "Hg10 mi
9:15 pm37 °FClear.5 mph56%30.23 "Hg10 mi
8:55 pm37 °FClear.6 mph56%30.23 "Hg10 mi
7:45 pm41 °FClear.5 mph42%30.25 "Hg10 mi
6:45 pm45 °FSunny.12 mph34%30.25 "Hg10 mi
5:45 pm46 °FSunny.9 mph32%30.26 "Hg10 mi
4:45 pm48 °FSunny.12 mph29%30.28 "Hg10 mi
3:45 pm48 °FSunny.14 mph29%30.29 "Hg10 mi
2:45 pm48 °FSunny.9 mph29%30.31 "Hg10 mi
1:45 pm46 °FSunny.10 mph27%30.34 "Hg10 mi
12:45 pm45 °FSunny.13 mph27%30.36 "Hg10 mi
11:45 am45 °FSunny.13 mph31%30.37 "Hg10 mi
10:45 am41 °FSunny.6 mph45%30.38 "Hg10 mi
Weather by CustomWeather, © 2019

See weather overview